{"data":{"norad_id":69016,"epoch":"2026-09-19T10:24:24.431904Z","epoch_age_seconds":111126,"freshness":"FRESH","line1":"1 69016U 26100AN  26262.43361611  .00001719  00000+0  78831-4 0  9992","line2":"2 69016  97.3898 158.6961 0009660  81.4393 278.7938 15.21745836 21147","mean_motion":15.21745836,"eccentricity":0.000966,"inclination_deg":97.3898,"raan_deg":158.6961,"arg_perigee_deg":81.4393,"mean_anomaly_deg":278.7938,"bstar":7.8831e-5,"rev_number":2114,"period_min":94.628154448257,"perigee_km":493.92963618066,"apogee_km":507.21930674353,"semimajor_km":6878.7114714621,"source":"CELESTRAK","updated_at":"2026-09-20T09:00:24.630801Z"}}